This is the latest recevied weather packets stored in our database for station/object IT9FBN-3. If no packets are shown the sender has not sent any weather packets the latest 10 day(s).
| Time | Temp. | Humidity | Pressure | Rain* | Wind** | Luminosity | Snow |
|---|---|---|---|---|---|---|---|
| 1777550403 | 24.44° C | 43% | 1016.3 hPa | 0 mm | - | - | - |
| 1777550102 | 23.89° C | 45% | 1016.4 hPa | 0 mm | - | - | - |
| 1777549803 | 23.89° C | 44% | 1016.3 hPa | 0 mm | - | - | - |
| 1777549503 | 23.89° C | 46% | 1016 hPa | 0 mm | - | - | - |
| 1777549203 | 23.33° C | 49% | 1016.3 hPa | 0 mm | - | - | - |
| 1777548903 | 23.33° C | 50% | 1016.3 hPa | 0 mm | - | - | - |
| 1777548603 | 22.78° C | 49% | 1016.4 hPa | 0 mm | - | - | - |
| 1777548303 | 22.78° C | 49% | 1016.4 hPa | 0 mm | - | - | - |
| 1777548003 | 23.89° C | 47% | 1016.4 hPa | 0 mm | - | - | - |
| 1777547703 | 24.44° C | 46% | 1016.3 hPa | 0 mm | - | - | - |
| 1777547403 | 23.89° C | 45% | 1016.5 hPa | 0 mm | - | - | - |
| 1777547103 | 23.89° C | 45% | 1016.5 hPa | 0 mm | - | - | - |
| 1777546803 | 23.89° C | 45% | 1016.5 hPa | 0 mm | - | - | - |
| 1777546503 | 24.44° C | 45% | 1016.5 hPa | 0 mm | - | - | - |
| 1777546202 | 23.89° C | 45% | 1016.5 hPa | 0 mm | - | - | - |
| 1777545903 | 23.89° C | 45% | 1016.7 hPa | 0 mm | - | - | - |
| 1777545602 | 23.89° C | 44% | 1016.6 hPa | 0 mm | - | - | - |
| 1777545303 | 24.44° C | 44% | 1016.6 hPa | 0 mm | - | - | - |
| 1777545002 | 23.89° C | 43% | 1016.5 hPa | 0 mm | - | - | - |
| 1777544703 | 23.89° C | 44% | 1016.6 hPa | 0 mm | - | - | - |
| 1777544403 | 23.33° C | 44% | 1016.5 hPa | 0 mm | - | - | - |
| 1777544103 | 23.89° C | 44% | 1016.6 hPa | 0 mm | - | - | - |
| 1777543803 | 23.89° C | 43% | 1016.7 hPa | 0 mm | - | - | - |
| 1777543503 | 23.33° C | 42% | 1016.7 hPa | 0 mm | - | - | - |
| 1777543203 | 23.33° C | 44% | 1016.6 hPa | 0 mm | - | - | - |
* Rain latest hour (hover to see other rain measurements)
** Current wind speed in m/s (hover to see current wind gust speed)